sat.trackr.live / text

‹ back to catalog

SPAWAR-CAL-OR

NORAD 43778 · 2018-099W

PAYLOAD ACTIVE UNKNOWN

§ Identity

Operator
Country
US
Launch date
2018-12-03
Launch site
AFWTR
Launch vehicle
Mass (kg)
RCS (m²)

External: N2YO · Heavens-Above · Gunter

§ Orbital elements

Epoch: 2026-09-19T22:14:41.173152Z

Period
94.44 min
Inclination
97.3706°
Eccentricity
0.0010433
Mean motion
15.24767331 rev/d
Perigee alt
484.3 km
Apogee alt
498.7 km
Semi-major
6,869.6 km
B*
2.3511e-4
RAAN
309.6517°
Arg perigee
351.6542°
Mean anomaly
8.4520°
Rev number
42,708

§ Raw data

SPAWAR-CAL-OR1 43778U 18099W   26262.92686543  .00005763  00000+0  23511-3 0  99922 43778  97.3706 309.6517 0010433 351.6542   8.4520 15.24767331427080

JSON: /api/v1/satellites/43778 · /tle

For live sub-satellite position, see the globe view (requires WebGL).

§ Visibility from observer

Set your observer location to see the next 7 days of passes ≥ 10°. The values pass through the URL so the page stays shareable.

No JS? Fill the form by hand. The geolocation button needs JavaScript.